Regional Weather Roundup
Issued by NWS

Home | Current Version | Previous Version | Graphics & Text | Print | Product List | Glossary On
Versions: 1 2 3 4 5 6 7 8 9 10 11 12 13 14 15 16 17 18 19 20 21 22 23 24 25 26 27 28 29 30 31 32 33 34 35 36 37 38 39 40 41 42 43 44 45 46 47 48 49 50
000
ASUS43 KMPX 251801
RWRMN
WEATHER ROUNDUP FOR MINNESOTA
NATIONAL WEATHER SERVICE TWIN CITIES/CHANHASSEN MN
100 PM CDT WED APR 25 2018


NOTE: "FAIR" INDICATES FEW OR NO CLOUDS BELOW 12,000 FEET WITH NO
SIGNIFICANT WEATHER AND/OR OBSTRUCTIONS TO VISIBILITY. N/A MEANS
CURRENT SKY AND/OR WEATHER CONDITIONS ARE NOT AVAILABLE.

MNZ060>063-068>070-251900-
   Twin Cities Metro

CITY           SKY/WX    TMP DP  RH WIND       PRES   REMARKS
TWIN CITIES    FAIR      54  25  32 CALM      30.18F
6HR MIN TEMP:  36; 6HR MAX TEMP:  54;

ST PAUL        FAIR      53  25  33 MISG      30.19F
CRYSTAL        FAIR      52  23  32 W8        30.17F
BLAINE         SUNNY     54  25  32 N6        30.18F
LAKEVILLE      FAIR      52  27  37 N5        30.18F
EDEN PRAIRIE   FAIR      52  27  38 SW6       30.17F
6HR MIN TEMP:  35; 6HR MAX TEMP:  53;

SOUTH ST PAUL  FAIR      53  25  33 CALM      30.17F
LAKE ELMO      FAIR      52  30  43 W8        30.18F
$$
MNZ001>005-007-008-013>017-022>024-027-028-251900-
   Northwest Minnesota

CITY           SKY/WX    TMP DP  RH WIND       PRES   REMARKS
BEMIDJI        FAIR      56  25  29 SW9G20    30.09F
HALLOCK        FAIR      66  30  26 SW23G31   29.95F
ROSEAU         FAIR      61  41  48 SW22      29.98F
WARROAD        FAIR      61  39  44 SW20      29.99F
THIEF RVR FALL FAIR      57  36  45 SW20G29   30.04F
CROOKSTON      FAIR      61  39  44 SW20G30   30.05F
FOSSTON        FAIR      54  32  43 S20G26    30.09F
DETROIT LAKES  FAIR      54  30  40 SW12      30.13F
MOORHEAD       FAIR      57  34  41 SW14G20   30.12F
PARK RAPIDS    FAIR      55  27  34 SW12      30.13F
MAHNOMEN       FAIR      54  32  44 SW21G26   30.10F
$$
MNZ006-009>011-018-025>026-251900-
   North Central Minnesota

CITY           SKY/WX    TMP DP  RH WIND       PRES   REMARKS
BAUDETTE       FAIR      59  31  34 SW13G26   30.01F
FLAG ISLAND    FAIR      43  30  61 S15       29.96F
INTL FALLS     FAIR      58  26  29 SW14      30.04F
6HR MIN TEMP:  25; 6HR MAX TEMP:  58;

WASKISH        FAIR      54  30  40 W12       30.07F
BIG FORK       FAIR      57  28  33 SW8       30.09F
LONGVILLE      FAIR      54  21  28 SW7       30.14F
GRAND RAPIDS   FAIR      52  22  30 S5        30.14F
CRANE LAKE     FAIR      52  19  28 S7        30.10F
ORR            FAIR      54  18  24 W6        30.07F
COOK           FAIR      54  25  32 S6        30.10F
WALKER         FAIR      54  25  31 SW9       30.11F
$$
MNZ012-019>021-037-251900-
   Northeast Minnesota

CITY           SKY/WX    TMP DP  RH WIND       PRES   REMARKS
DULUTH         FAIR      51  24  34 CALM      30.13F
6HR MIN TEMP:  30; 6HR MAX TEMP:  52;

ELY            FAIR      50  19  29 SW5       30.10F
HIBBING        FAIR      53  22  29 VRB5      30.11F
EVELETH        FAIR      51  21  31 SW7       30.12F
DULUTH HARBOR  FAIR      43  30  61 E8        30.17F
TWO HARBORS    FAIR      48  30  49 S9        30.14F
SILVER BAY     FAIR      45  27  49 S8        30.13F
GRAND MARAIS     N/A     37  30  75 SW6       30.16F
G MARAIS ARPRT FAIR      41  18  38 SE8       30.10F
$$
MNZ029>031-032-039>041-046>048-054>057-064-251900-
   West Central Minnesota

CITY           SKY/WX    TMP DP  RH WIND       PRES   REMARKS
FERGUS FALLS   FAIR      54  30  40 SW8G20    30.13F
WHEATON        SUNNY     55  32  41 S8        30.17F
MORRIS         SUNNY     52  34  50 SW8       30.17F
ALEXANDRIA     FAIR      52  28  39 S8        30.18F
ELBOW LAKE     FAIR      52  32  47 SW10      30.17F
WADENA         FAIR      50  30  46 SW10G16   30.15F
GLENWOOD       FAIR      50  27  40 W6        30.18F
APPLETON       SUNNY     52  27  37 S5        30.19F
BENSON         SUNNY     52  28  40 W5        30.21F
ORTONVILLE     SUNNY     55  30  38 SW6       30.17F
WILLMAR        FAIR      48  34  57 NW8       30.22F
$$
MNZ033>034-036-042>043-049>051-058-059-251900-
   Central Minnesota

CITY           SKY/WX    TMP DP  RH WIND       PRES   REMARKS
ST CLOUD       FAIR      51  26  37 SW5       30.17F
6HR MIN TEMP:  28; 6HR MAX TEMP:  52;

SAUK CENTRE    FAIR      49  28  44 SW3       30.18F
PAYNESVILLE    FAIR      52  27  38 W3        30.19F
AITKIN         FAIR      50  21  32 W5        30.14F
PINE RIVER     FAIR      48  27  43 SW6       30.17F
BRAINERD       FAIR      53  22  29 SW3       30.16F
STAPLES        FAIR      54  23  30 SW7       30.16F
LONG PRAIRIE   FAIR      48  27  43 S5        30.18F
LITTLE FALLS   FAIR      50  14  23 W5        30.17F
LITCHFIELD     FAIR      52  28  40 W5        30.19F
BUFFALO        FAIR      50  28  42 W5        30.20F
MAPLE LAKE     FAIR      52  31  44 CALM      30.19F
HUTCHINSON     FAIR      50  32  50 W5        30.20F
$$
MNZ037-044-045-052-053-251900-
   East Central Minnesota

CITY           SKY/WX    TMP DP  RH WIND       PRES   REMARKS
PRINCETON      FAIR      54  25  32 N3        30.18F
MORA           FAIR      50  23  34 NW3       30.19F
CAMBRIDGE      FAIR      54  30  40 NW5       30.18F
RUSH CITY      FAIR      50  26  39 SW6       30.18F
MOOSE LAKE     FAIR      52  25  35 N5        30.14F
HINCKLEY       FAIR      50  27  40 SW6       30.17F
CLOQUET        FAIR      52  16  24 S6        30.14F
MCGREGOR       FAIR      52  23  32 SW8       30.16F
$$
MNZ071>073-080-081-089-090-097-098-251900-
   Southwest Minnesota

CITY           SKY/WX    TMP DP  RH WIND       PRES   REMARKS
MONTEVIDEO     SUNNY     54  34  47 W7        30.20F
GRANITE FALLS  SUNNY     51  34  53 W6        30.22F
CANBY          SUNNY     55  27  33 NW6       30.20F
MARSHALL       SUNNY     51  31  46 N3        30.20
REDWOOD FALLS  SUNNY     50  30  46 VRB5      30.19F
OLIVIA         SUNNY     50  32  50 N3        30.19F
PIPESTONE      SUNNY    N/A N/A N/A NW7       30.20F
WINDOM         SUNNY     52  28  40 CALM      30.19F
WORTHINGTON    SUNNY     51  29  42 NW7       30.20F
JACKSON        SUNNY     50  32  50 N6        30.19F
TRACY          SUNNY     49  34  54 N6        30.20F
SLAYTON        SUNNY     48  31  52 NW8       30.21F
$$
MNZ065>067-074>077-082>085-091>093-251900-
   South Central Minnesota

CITY           SKY/WX    TMP DP  RH WIND       PRES   REMARKS
MANKATO        FAIR      50  30  46 NW7       30.19F
NEW ULM        SUNNY     50  28  43 NW7       30.19F
ST JAMES       SUNNY     50  36  57 NW5       30.21F
FAIRMONT       SUNNY     49  36  61 N8        30.19F
GLENCOE        FAIR      51  33  50 NW6       30.18F
OWATONNA       FAIR      52  30  43 N7        30.17F
WASECA         FAIR      52  32  46 N7G17     30.19F
ALBERT LEA     FAIR      52  30  43 N9        30.16F
$$
MNZ078>079-086>088-094>096-251900-
   Southeast Minnesota

CITY           SKY/WX    TMP DP  RH WIND       PRES   REMARKS
ROCHESTER      FAIR      54  32  43 N9        30.16F
6HR MIN TEMP:  36; 6HR MAX TEMP:  54;

RED WING       FAIR      54  23  30 SE10      30.16F
STANTON        FAIR      52  30  42 W3        30.17F
DODGE CENTER   FAIR      50  30  46 N9        30.16F
WINONA         FAIR      54  32  43 N6        30.14F
AUSTIN         FAIR      52  34  50 NW5       30.16F
PRESTON        FAIR      52  31  44 N10       30.15F
$$
ABBREVIATIONS USED IN REMARKS
   TC - TEMPERATURES IN CELSIUS
  WCI - WIND CHILL INDEX
   HX - HEAT INDEX
  VSB - VISIBILITY
$$



USA.gov is the U.S. government's official web portal to all federal, state and local government web resources and services.